Terminal Aerodrome Forecast
Issued by NWS Huntsville, AL

Home | Current Version | Previous Version | Text Only | Print | Product List | Glossary On
Versions: 1 2 3 4 5 6 7 8 9 10 11 12 13 14 15 16 17 18 19 20 21 22 23 24
000
FTUS44 KHUN 221135
TAFHSV
TAF
KHSV 221135Z 2212/2312 12010KT P6SM SCT120
     FM221700 15012G17KT P6SM SCT100 BKN250
     FM230100 12009KT P6SM SCT030 OVC070 PROB30 2307/2312 5SM -SHRA
      OVC030=

USA.gov is the U.S. government's official web portal to all federal, state and local government web resources and services.